Race Results for
23rd Annual Lower Providence Spring Classic Criter
Norristown, PA
(Event Information)
View By:
Criterium on 04/18/2010

Note: Ranking points are NOT upgrade points. An explanation of ranking points can be found here.


Men - Cat 1/2/3

 Place Points NameCity, StateTime USAC #BibTeam
1221.90Scott Zwizanski   West Chester, PA1:12:03 131248  595 
2225.09Michael Stoop (1 - Cat1)   Richmond, VA1:12:03 212905  561 RICHMOND PRO CYCLING
3228.27Jared Babik   Pittsburgh, PA1:12:03 165571  503 Indiana Regional Medical Center
4231.46Brett Kielick   Philadelphia, PA1:12:03 258581  594 QCW Cycling
5234.64Daniel Wilson   Cliffside Park, NJ1:12:03 197488  569 TEAM ALLIANCE ENVIRONMENTAL
6237.82S Charles Zamastil   Wichita Falls, TX1:12:03 275731  592 QCW Cycling
7241.01Karl Rahn   New York, NY1:12:03 92839  580 
8244.19Richard Straub   State College, PA1:12:03 126976  599 Pabst Blue Ribbon/Talksoft Racing
9247.37Juan Carmona (2 - Cat1)   Breinigsville, PA1:12:03 251948  589 Young Medalists/Team Dual Temp
10250.56Mark Light   Hackettstown, NJ1:12:03 112548  509 Liberty Cycle
11253.74Brian Hoffman   Pittsburgh, PA1:12:03 256860  585 Pittsburgh Elite Velo
12256.92Andrew Lakatosh   San Pedro, CA1:12:03 133988  533 ALLIANCE ENVIORNMENTAL
13260.11Karl Woitas   Elizabethtown, PA1:12:03 38756  579 Chester County Cycling Foundation
14263.29Jamil Kayin (3 - Cat1)   Philadelphia, PA1:12:03 241998  583 QCW Cycling
15266.48Sean Whiteman   Philadelphia, PA1:12:03 288380  567 QCW CYCLING/BREAKAWAYBIKES.COM
16269.66Andrew Kuklis   Breinigsville, PA1:12:03 96151  532 LION OF FLANDERS / CYCLE LOFT
17272.84Matthew Baranoski   Perkasie, PA1:12:03 213251  504 TEAM ALLIANCE ENVIRONMENTAL
18276.03Stephen Kincaid   Reading1:12:03 19139  596 Century Road Club Association
19279.21Ryan Shebelsky   Elizabethtown, PA1:12:03 274785  558 TEAM ALLIANCE ENVIRONMENTAL
20282.39Andrew Johnson   Parkesburg, PA1:12:03 163272  999 Mason Dixon Velo
21285.58Ryan Pomajevich   Schnecksville, PA1:12:03 145887  549 TEAM LIONOFFLANDERS.COM
22288.76Zack Noonan   Kutztown, PA1:12:03 249618  545 YOUNG MEDALISTS/TEAM DUAL TEMP
23291.95Craig Lebair   Pipersville, PA1:12:03 211155  537 PHILADELPHIA CICLISMO
24295.13Robin Carpenter   Philadelphia, PA1:12:03 229481  510 YOUNG MEDALISTS/ TEAM DUAL TEMP
25298.31Paul Hoyle   Avondale, PA1:12:03 213976  525 MORGAN STANLEY/MARKET EDGE
26301.50Nick Price   West Lawn, PA1:12:03 169174  550 DYNAFLO RACING
27304.68Colin Sandberg   Philadelphia, PA1:12:03 119361  58 PENN STATE HERSHEY CANCER INSTITUTE
28307.86Gavin Robertson   Pemberton, NJ1:12:03 205328  598 Century Road Club Association
29311.05Eric Salzer   Chesterbrook, PA1:12:03 237411  553 CHESTERCOUNTYVELO - SMEDLEY/IRONHILL
30314.23Matthew Spohn   West Chester, PA1:12:03 219378  560 RICHMOND PRO CYCLING
31317.42Martin Mrugal   West Chester, PA1:12:03 226753  543 PA MASTERS RC
32320.60Joseph Whitman   State College, PA1:12:03 177933  568 AXA EQUITABLE CYCLING TEAM/CRCA
33323.78Jason Wood (1 - Cat2)   Doylestown, PA1:12:03 270565  570 PELOTONIA CYCLING TEAM P/B ROLL:
34326.97Benjamin Salibra (2 - Cat2)   Fayetteville, NY1:12:03 233370  571 Century Road Club Association
35330.15Colton Valentine   Philadelphia, PA1:12:03 186783  575 QCW Cycling
36333.33David Novak   Tunkhannock, PA1:12:03 268729  546 SICKLER'S RACING/ UPSTATE VELO
37336.52Paul Chooweenam   Ozone Park, NY1:12:03 157345  586 Kissena Cycling Club
38339.70Stephen Szwec   Yardley, PA1:12:03 221537  563 CHESTER COUNTY VELO - SMEDLEY/IRONHILL
39342.88Kyle Eckley (3 - Cat2)   Easton, PA1:12:03 80336  501 Hershey Cancer Institute-GPOA-Cannondale
40346.07Kenneth Wareham   Mount Joy, PA1:12:03 174846  573 Thru-It-All Body Shop Inc
41Shaniyah Thomas   1:12:03  516 
42352.44Matthew Swiatek   Macungie, PA1:12:03 196716  582 Team LionofFlanders.com
43355.62Joseph Lanza   Narberth, PA1:12:03 73550  535 GUYS RACING CLUB
44Marcquia Garvin   1:12:03  513 
45361.99Matt Perry   West Chester, PA1:12:03 224448  548 PA MASTERS
46Dewayne Browater   1:12:03  505 
47368.35Steve Sandacz   Wayne, PA1:12:03 135690  554 MAINLINE CYCLING - BIKYLE/MAZUR COACHING
48371.54Paul Drees   Avondale, PA1:12:03 193282  581 Morgan Stanley Cycling Team
49Fenlon Tseng   1:12:03  519 
50Rider Unknown     999 
51381.09Nicholas Maimone   San Francisco, CA1:12:03 246414  538 TRI-STATE VELO / AMOROSO'S RACING TEAM
52384.27Mark Valentine   Philadelphia, PA1:12:03 36301  576 
53387.46Stephen May   Lebanon, PA1:12:03 134837  574 ERA Cycling
54390.64Aaron Ritz   Philadelphia, PA1:12:03 111264  551 QCW CYCLING/BREAKAWAYBIKES.COM
55393.82Andrew Walsh   Hackensack, NJ1:12:03 251325  564 CRCA/FOUNDATION
56Ben Model   1:12:03  524 
57400.19John Howe   Newtown, PA1:12:03 213562  597 CycleLife/Raw Talent Ranch Racing
58403.38Mike Stubna (4 - Cat1)   Philadelphia, PA1:12:03 222437  562 INDIANA REGIONAL MEDICAL CENTER
59Jasdon Long   1:12:03  522 
60409.74Russell Blake   Dover, PA1:12:03 60238  588 Mason Dixon Velo
61412.93 Som Raj Seepersaud   North Lauderdale, FL1:12:03 188623  587 Flying Ace Cycling Club
62Khalil Brown   1:12:03  507 
63419.29Mike Festa   Devon, PA1:12:03 149744  515 PHILADELPHIA CICLISMO
64422.48Nicholas Rogers   Philadelphia, PA1:12:03 290087  552 QCW CYCLING/ BREAKAWAYBIKES.COM
65425.66George Kotokis   Philadelphia, PA1:12:03 46984  531 GUY'S RACING CLUB
66428.84Zachary Semian   Mertztown, PA1:12:03 250164  556 TEAM ALLIANCE ENVIRONMENTAL
67432.03Justin Kanter   Moon Twp, PA1:12:03 201399  584 Pittsburgh Elite Velo
68435.21Tim Gresh   West Chester Pa, PA1:12:03 197894  578 Chester County Cycling Foundation
69438.40James Maino   Chester Springs, PA1:12:03 22199  539 ELITE RACING
70441.58Ryan Smolko   Terre Haute, IN1:12:03 201783  559 CCV-SMEDLEY/IRON HILL RACE TEAM
71Annie Ngyen   1:12:03  520 
72Saeqoise Tremble   1:12:03  502 
73451.13Joseph Wentzell   Philadelphia, PA1:12:03 107658  566 QCW CYCLING/BREAKAWAYBIKES.COM
74Karon Barber-Temple   1:12:03  508 
75457.50George Menard   Dover, PA1:12:03 111873  540 TEAM ALLIANCE ENVIRONMENTAL
76460.68Guillaume Nelessen   Lambertville, NJ1:12:03 151319  591 Van Dessel Factory Team
77463.87Dan Lavelle   Philadelphia, PA1:12:03 254791  536 PHILADELPHIA CICLISMO
78Stephan Thompson   1:12:03  523 
79470.23Rod Myers   Etters, PA1:12:03 25626  544 LIBERTY CYCLE
80Brinklea Barnes   1:12:03  506 
81476.60Michael Miller   Morgantown, PA1:12:03 57947  541 TEAM ALLIANCE ENVIRONMENTAL
82Pat Thach   1:12:03  518 

Men - Cat 3/4

 Place Points NameCity, StateTime USAC #BibTeam
1327.14David Dawson   Springfield, PA0:45:29 250197  892 HUMAN ZOOM/PABST BLUE RIBBON
2331.14Nicholas Roeder   Kunkletown, PA0:45:29 235891  937 TRI-STATE VELO
3335.14David Grant   Downingtown, PA0:45:29 13897  903 CHESTER COUNTY VELO - SMEDLEY/IRONHILL
4339.14Nicholas Maimone   San Francisco, CA0:45:29 246414  928 TRI-STATE VELO/AMOROSOS RACING
5343.13Craig Alabovitz   Douglasville, PA0:45:29 264096  963 Unattached
6347.13Robert Grimwood   Lewisberry, PA0:45:29 259837  904 EASTERN MOBILE CYCLING TEAM
7351.13Adam Kahler   Bakersfield, CA0:45:29 221287  919 PELOTONIA CYCLING TEAM P/B ROLL:
8355.13Josh Clingan   York, PA0:45:29 143547  885 MASON DIXON VELO / TEAM CYCLEWORKS
9359.13Keith Hatton   Philadelphia, PA0:45:29 278237  960 Unattached
10363.12Scott Lehmann   Port Orange, FL0:45:29 54838  924 UNATTACHED
11367.12Christopher Candy   Kennett Square, PA0:45:29 5989  883 CHESTER COUNTY VELO - SMEDLEY/IRON HILL
12371.12Michael Coyle   Philadelphia, PA0:45:29 238020  887 QCW CYCLING/BREAKAWAYBIKES.COM
13375.12Andrew Walsh   Hackensack, NJ0:45:29 251325  949 CRCA/FOUNDATION
14379.11Douglas Jones   Fleetwood, PA0:45:29 242793  918 WAYSIDE RACING
15383.11Tyler Malay   New Tripoli, PA0:45:29 230145  929 TEAM VORTEX
16387.11Noah Zitzer   Asheville, NC0:45:29 198903  952 CHESTER COUNTY VELO- SMEDLEY/IRON HILL
17391.11Robert Biese   Kutztown, PA0:45:29 40023  878 TEAM VORTEX
18395.11Stuart Dorman   Princeton, NJ0:45:29 156090  893 PURE ENERGY CYCLING / PROAIRHFA RACING
19399.10Marc Wolman   Philadelphia, PA0:45:29 244058  951 QCW CYCLING/BREAKAWAYBIKES.COM
20403.10Kenneth Wareham   Mount Joy, PA0:45:29 174846  961 Thru-It-All Body Shop Inc
21407.10Dan Lavelle   Philadelphia, PA0:45:29 254791  923 PHILADELPHIA CICLISMO
22411.10Bryan Hitch   Philadelphia, PA0:45:29 149458  912 ELITE CYCLING
23415.09Zachary Semian   Mertztown, PA0:45:29 250164  966 TEAM ALLIANCE ENVIRONMENTAL
24419.09Gregory Ratzell   Blandon, PA0:45:29 230201  936 BIKELINE / LWA
25423.09Gregory Danielewicz   Bensalem, PA0:45:29 55557  890 BCRC
26427.09Richard Steele   West Chester, PA0:45:29 237198  946 CHESTER COUNTY VELO - SMEDLEY/IRONHILL
27431.09Gerald Burkett   Middletown0:45:29 97936  881 EASTERN MOBILE CYCLING TEAM
28435.08Gordon Stone   Kennett Square, PA0:45:29 297942  947 ZEN MASTERS RACING
29439.08Matthew Voyer   Blandon, PA0:45:29 247712  948 YOUNG MEDALISTS / TEAM DUAL TEMP
30443.08Matthew Furlow   Philadelphia, PA0:45:29 283375  900 QCW CYCLING/BREAKAWAYBIKES.COM
31447.08John Howe   Newtown, PA0:45:29 213562  914 CYCLELIFE/ RAW TALENT RANCH RACING
32451.08Drew Karlberg   Philadelphia, PA0:45:29 232723  921 CHESTER COUNTY VELO - SMEDLEY/IRONHILL
33455.07Timothy Hoyle   Wayne, PA0:45:29 297148  915 CHESTER COUNTY VELO - SMEDLEY/IRONHILL
34459.07Darren Hartman   Lewisberry, PA0:45:29 272204  910 EASTERN MOBILE CYCLING TEAM
35463.07William (Booey) Hottenstein (1 - Cat3)   Kingston, PA0:45:29 195794  913 TRI-STATE VELO/AMOROSO'S RACING TEAM
36467.07Calvin Hoops   Philadelphia0:45:29 286845  953 Guys Racing Club
37471.06Manuel Caliz   Ephrata, PA0:45:29 244954  882 SHIRKS RACING PRESENTED BY TREK BIKES
38475.06Michael Egan   Newtown Square, PA0:45:29 242939  895 ZEN MASTERS
39479.06Greg Dattner   Carlisle, PA0:45:29 231213  891 CHESTER COUNTY VELO - SMEDLEY/IRONHILL
40483.06David Iglewicz   Phoenixville, PA0:45:29 267162  916 CCV-SMEDLEY/IRONHILL RACE TEAM
41487.06Meurig James   Philadelphia, PA0:45:29 309287  917 QCW CYCLING/BREAKAWAYBIKES.COM
42491.05Stephen Sambrano   Lansdale, PA0:45:29 141829  940 MAIN LINE CYCLING - BIKYLE/MAZUR
43495.05Richard Miller   Philadelphia, PA0:45:29 181316  962 QCW Cycling
44499.05Matthew Waller   Morgantown, PA0:45:29 249208  965 Tri State Velo
45503.05John Linvill   Philadelphia, PA0:45:29 66905  925 GUY'S RACING CLUB
46Rider Unknown     999 
47511.04Jamie Harris   Linfield, PA0:45:29 268754  908 PHILADELPHIA CICLISMO
48515.04Nicholas Rogers   Philadelphia, PA0:45:29 290087  938 QCW CYCLING/ BREAKAWAYBIKES.COM
49519.04Eric Poeltl   Naples, FL0:45:29 305212  934 QCW CYCLING/BREAKAWAYBIKES.COM
50523.04Jason Cole (2 - Cat3)   Philadelphia, PA0:45:29 246955  886 PHILADELPHIA CICLISMO
51527.03David Lauria   Oneonta , NY0:45:29 183228  922 PHILADELPHIA CICLISMO/VILLANOVA UNIVERSITY
52531.03Timothy Hancock   Telford, PA0:45:29 41453  905 MAINLINE CYCLING - BIKYLE/MAZUR
53535.03Matt Harris   Philadelphia, PA0:45:29 208849  909 PHILADELPHIA CICLISMO/VELO EUROPA IMPORTS
54539.03William (Booey) Hottenstein (3 - Cat3)   Kingston, PA0:45:29 195794  968 TRI-STATE VELO/AMOROSO'S RACING TEAM
55543.03Jonathan Akers (4 - Cat3)   Allentown, PA0:45:29 242641  877 CCV - SMEDLEY/IRON HILL RACE TEAM
56547.02R Keith MacLaughlin (5 - Cat3)   West Chester, PA0:45:29 245036  927 EASTERN MOBILE CYCLING TEAM
57551.02Kimberly Geist   Emmaus, PA0:45:29 134992  901 TEAM ALLIANCE ENVIRONMENTAL
58555.02David Casale   Pennsauken, NJ0:45:29 274173  884 TRI-STATE VELO
59559.02Eric Fredericks   Wayne, PA0:45:29 41704  898 MAZUR COACHING-CYCLES BIKYLE
60563.01Scott Gamble   West Chester, PA0:45:29 12727  954 Chester County Velo
61567.01Erik Mitchell   Phoenixville, PA0:45:29 102406  964 Phenix Velo Club

Men - Cat 4

 Place Points NameCity, StateTime USAC #BibTeam
1422.60Michael Egan   Newtown Square, PA0:44:45 242939  792 ZEN MASTERS
2426.08Taylor Lantz   Ronks, PA0:44:45 277090  812 SHIRKS RACING PRESENTED BY TREK BIKES
3429.57David Casale   Pennsauken, NJ0:44:45 274173  784 TRI-STATE VELO
4433.06James Guardino   Conshohocken, PA0:44:45 286599  802 CHESTER COUNTY VELO - SMEDLEY/IRONHILL
5436.55Scott Gamble   West Chester, PA0:44:45 12727  798 CHESTER COUNTY VELO - SMEDLEY/IRONHILL RACE TEAM
6440.03Mark Lennie   Chester Springs, PA0:44:45 295689  813 CHESTER COUNTY VELO - SMEDLEY/IRONHILL
7443.52Gordon Stone   Kennett Square, PA0:44:45 297942  843 ZEN MASTERS RACING
8447.01Dean Molle   King Of Prussia, PA0:44:45 292567  824 ZEN MASTERS RACING
9450.50Curtis Junge   Topton, PA0:44:45 275888  809 TEAM ALLIANCE ENVIRONMENTAL
10453.98David Kapigian   Sicklerville, NJ0:44:45 292890  810 ACTION WHEELS P/B VIKING YACHTS
11457.47Aaron Schelegle   Philadelphia, PA0:44:45 282258  835 QCW CYCLING/BREAKAWAYBIKES.COM
12460.96james forbes   Cinnaminson, NJ0:44:45 283674  795 PSRACING/MASTERPIECE KITCHENS
13464.45John Linvill   Philadelphia, PA0:44:45 66905  816 GUY'S RACING CLUB
14467.93Matthew Doyal   Hillsborough, NJ0:44:45 301294  791 PURE ENERGY CYCLING-PROAIRHFA
15471.42richard ambacher   Pitman, NJ0:44:45 287486  776 CAFFEINATED CYCLIST RACING
16474.91Michael Green   Philadelphia , PA0:44:45 296751  999 Team Bicycle Therapy
17478.40Steven Smith   Cooperstown, NY0:44:45 230707  839 PACELINE SPORTS
18481.88Matthew Braun   Ithaca, NY0:44:45 306077  780 QCW CYCLING/BREAKAWAYBIKES.COM
19485.37Alexander Sverdlov   Washington, DC0:44:45 302322  844 QCW CYCLING/BREAKAWAYBIKES.COM
20488.86greg horrocks   Spring City, PA0:44:45 283254  806 QCWCYCLING/BREAKAWAYBIKES.COM
21492.35Thomas Hauser   Lititz, PA0:44:45 277857  855 Mason Dixon Velo
22CHRIS WELSH   0:44:45  850 WELSH PERFORMANCE TRAINING SYSTEMS
23499.32Christopher Meacham   Mooresville, NC0:44:45 297555  822 VORTEX
24502.81Justin Davala   Blackwood, NJ0:44:45 296889  789 ACTION WHEELS P/B VIKING YACHTS
25506.30Shane Watters   Philadelphia, PA0:44:45 280212  859 BICYCLE THERAPY
26509.79Mark Curran   Titusville, NJ0:44:45 272666  787 PURE ENERGY CYCLING - PROAIR HFA RACING
27513.27Alexander Roberts   Lancaster, PA0:44:45 108416  854 Lost Boys Racing inc.
28516.76Ryan Hardy   Phoenix , AZ0:44:45 229999  803 C3-ATHLETES SERVING ATHLETES
29520.25Kyle Funk   Macungie, PA0:44:45 262202  797 
30523.74Adam Snoke   Landisville, PA0:44:45 221838  840 CCV - SMEDLEY / IRON HILL RACE TEAM
31527.22Kristofer Moore   Easton, PA0:44:45 199779  827 
32530.71Randy Sellari   Bryn Mawr, PA0:44:45 212070  836 ZEN MASTERS RACING
33534.20Steven Weaber   Jonestown, PA0:44:45 291815  849 ERA CYCLING
34537.69Jonathan Bright   Barto, PA0:44:45 249282  860 
35541.17JScott Korbich   New Tripoli, PA0:44:45 292683  811 BIKE LINE/LWA
36544.66Stephen Harvey   Philadelphia, PA0:44:45 293669  804 QCW/BREAKAWAYBIKES.COM
37548.15John Wilson   King Of Prussia, PA0:44:45 91489  851 
38551.64Jason Pizzollo   Tucson, AZ0:44:45 297574  831 PHILADELPHIA CICLISMO
39555.12Gerald Voyer   Blandon, PA0:44:45 195965  845 SHIRKS RACING MASTERS TEAM
40558.61Anthony So   Philadelphia, PA0:44:45 285872  841 TEAM INDEPENDENCE
41562.10Christopher Corcoran   Runnemede, NJ0:44:45 241000  785 CAFFEINATED CYCLIST RACING
42565.59Timothy Hoyle   Wayne, PA0:44:45 297148  807 CHESTER COUNTY VELO - SMEDLEY/IRONHILL
43569.07Todd Noonan   Sheffield, AL0:44:45 242255  828 KUTZTOWN CUTTERS
44572.56Keith Plunkett   Emmaus, PA0:44:45 268831  832 HUP UNITED /FIFTH STREET CROSS
45576.05Alan Fody   Philadelphia, PA0:44:45 291632  794 TRI-STATE VELO
46Rider Unknown     999 
47583.02Brendan Newman   Philadelphia, PA0:44:45 229816  858 
48586.51Lee Sobotkin   King Of Prussia, PA0:44:45 188264  842 TRI-STATE VELO
49590.00Darren Linkin   Philadelphia, PA0:44:45 274396  815 QCW CYCLING/BREAKAWAYBIKES.COM

Men - Cat 5

 Place Points NameCity, StateTime USAC #BibTeam
1540.00Darrin Miskiewicz   Springcity, PA0:35:51 305795  729 
2541.25Richard Wawrzeniak   Salisbury, MD0:35:51 289097  743 OCEAN VELO CLUB/BIKESPORT
3542.50Montana Norvell   Philadelphia, PA0:35:51 161049  730 TOTAL POLO LABORATORIES
4543.75Paul Cunningham   Philadelphia, PA0:35:51 313496  706 QCW CYCLING/BREAKAWAYBIKES.COM
5545.00Jeffrey Toth   Boyertown, PA0:35:51 86807  747 
6546.25Bradley Gay   Philadelphia, PA0:35:51 275991  715 QCW / BREAKAWAYBIKES.COM
7547.50James Horstmann   Havertown, PA0:35:51 290856  720 
8548.75Christopher Lander   Oxford, PA0:35:51 304132  725 TEAM ALLIANCE ENVIRONMENTAL
9550.00Kenneth Barfell   West Grove, PA0:35:51 299092  701 DRT/DEEP BLUE
10551.25Lawrence Senese   Wayne, PA0:35:51 257064  736 TRI STATE VELO
11552.50Jeffrey Wolf   Hockessin, DE0:35:51 292505  745 UNATTACHED
12MICHAEL BLACK   0:35:51  702 
13555.00Mike Garvey   Langhorne, PA0:35:51 240931  713 GUY'S RACING
14556.25John Stover   Lockhaven, PA0:35:51 295531  739 INCYCLE
15TIMOTHY SMITH   0:35:51  738 GUY'S BICYCLE CLUB
16TOMAS KETCHAM   0:35:51  722 
17560.00Phillip Gause   Littleton , CO0:35:51 313672  714 QCW CYCLING / BREAKAWAYBIKES.COM
18561.25Gregory Zielinski   Wilmington, DE0:35:51 276040  746 TEAM TBB/DEEP BLUE
19Carlos Colon   0:35:51  751 
20563.75Stephen Mechanick   Gladwyne, PA0:35:51 261796  728 ZEN MASTERS RACING
21SCOTT CAMERON   0:35:51  705 
22566.25Neil Head   Coatesville, PA0:35:51 310251  718 
23JESSE BRUSER   0:35:51  704 
24568.75Jim Ludovici   New Hope, PA0:35:51 191795  726 PURE ENERGY CYCLING - PROAIRHFA
25570.00Shaun Gormley   West Chester, PA0:35:51 310455  716 CHESTER COUNTY VELO SMEDLY/IRON HILL
26571.25Harper Watters   Ithaca, NY0:35:51 306292  742 QCW/BREAKAWAYBIKES.COM
27572.50Mark Freeman   Philadelphia, PA0:35:51 299831  712 
28573.75Michael McLaughlin   Philadelphia, PA0:35:51 273243  727 QCW CYCLING/BREAKAWAYBIKES.COM
29575.00RenShuoh Kuo   Philadelphia, PA0:35:51 296105  724 
30576.25John Wichard   Chesterbrook, PA0:35:51 298001  744 UNATTACHED
31577.50Andrew Davala   Blenheim, NJ0:35:51 307571  707 ACTION WHEELS P/B VIKING YACHTS
32578.75Austin Davco   Allentown, PA0:35:51 313544  749 
33580.00Michael DeGregoris   King Of Prussia, PA0:35:51 298015  708 QCW CYCLING/BREAKAWAYBIKES.COM
34Mike Taras   0:35:51  748 
35582.50Michael Porter   Linfield, PA0:35:51 241299  732 GUYS RACING
36583.75Jamie Orr   Pottstown, PA0:35:51 306399  731 SUNNYBROOK AND HIGH CYCLING CLUB
37585.00Pete Esposito   Philadelphia, PA0:35:51 307998  710 QCW CYCLING/BREAKAWAYBIKES.COM
38586.25Andrew Bolton   Princeton, NJ0:35:51 309865  703 NEW YORK ATHLETIC CLUB
39587.50Paul Kilroy   Columbus0:35:51 307010  723 MIDDLETOWN BIKELINE
40588.75William Roach   Wayne, PA0:35:51 256457  735 QUAKER CITY WHEELMEN/BREAKAWAYBIKES.COM
41590.00Kevin Dillard   Washington, DC0:35:51 43577  709 C3-ATHLETES SERVING ATHLETES

Men - Master - 45-49

 Place Points NameCity, StateTime USAC #BibTeam
1309.78Joseph Manacchio   Philadelphia, PA0:45:45 53227  343 PA Masters RC
2315.65John Spittal   Elizabethtown, PA0:45:45 64446  342 Thru-It-All Body Shop Inc
3321.52Gilbert Hatton   Pottstown, PA0:45:45 61128  335 Chester County Cycling Foundation
4327.39Brad Ober   Lancaster, PA0:45:45 76653  321 THRU-IT-ALL BODY SHOP INC
5333.26Neal Stansbury (1 - Cat1)   Orefield, PA0:45:45 45968  329 TRI-STATE VELO
6339.13Jeffrey Appeltans   Philadelphia, PA0:45:45 1826  301 MAMBO/D&Q-FLYING FISH BREWERY
7345.00Thomas Lyons   Newtown Square, PA0:45:45 224539  316 MAIN LINE CYCLING- BIKYLE
8350.87James Alvord   King Of Prussia, PA0:45:45 45021  300 Q.C.W
9356.73Richard Miller   Philadelphia, PA0:45:45 181316  318 QUAKER CITY WHEELMEN/BREAKAWAYBIKES.COM
10362.60Joseph Piscitello   Rydal, PA0:45:45 218814  324 PA MASTERS RC.
11368.47James Wiley   Wayne, PA0:45:45 234247  332 MAIN LINE CYCLING
12374.34Darin Benson   Lancaster, PA0:45:45 45075  302 THRU-IT-ALL BODY SHOP INC
13380.21Keith Cramer   Audubon, PA0:45:45 155148  306 QCW CYCLING/BREAKAWAYBIKES.COM
14386.08David Gulick   Phoenixville, PA0:45:45 45409  334 
15391.95John Paproski   North Wales, PA0:45:45 73934  347 Elite Racing
16397.82Michael Speranza   Philadelphia, PA0:45:45 76520  344 QCW Cycling
17403.69Michael Holub   Quakertown, PA0:45:45 124141  312 BIKE LINE/LWA
18409.56Thomas Bartolacci   Schnecksville, PA0:45:45 57616  345 Bucks County Racing Club
19415.43Stephen Waters (1 - Cat4)   Oreland, PA0:45:45 51943  331 GUY'S RACING CLUB
20421.30Sean OReilly   Blue Bell, PA0:45:45 292032  322 GUYS RACING
21427.17Peter Thallner   Flourtown, PA0:45:45 51567  330 GUY'S RACING CLUB
22433.04Joseph Kenas   Meadowbrook, PA0:45:45 177439  313 GUY'S RACING
23438.91Kevin Saint Clair   Philadelphia, PA0:45:45 92253  325 MAIN LINE CYCLING - BIKYLE/MAZUR COACHING
24444.78Ivan Solero   Wilmington, DE0:45:45 33433  328 MAIN LINE CYCLING - BIKYLE/MAZUR COACHING
25450.64Paul McDonald   Doylestown, PA0:45:45 223596  339 Lehigh Wheelmen Assoc
26456.51Paul Drees   Avondale, PA0:45:45 193282  349 Morgan Stanley Market Edge
27462.38Martin Mrugal   West Chester, PA0:45:45 226753  336 PA Masters RC
28468.25Ronald Livingston (1 - Cat3)   Paoli, PA0:45:45 67286  314 MAIN LINE CYCLING - BIKYLE/MAZUR COACHING
29474.12Ted Slack   Philadelphia, PA0:45:45 195787  327 QCW CYCLING/BREAKAWAYBIKES.COM
30479.99Bill Wittman (2 - Cat3)   Coatesville, PA0:45:45 208461  333 MAIN LINE CYCLING - BIKYLE/MAZUR COACHING
31485.86Kevin Gibbons   King Of Prussia, PA0:45:45 195734  348 Main Line Cycling
32491.73Daniel Conlin   Wilmington, DE0:45:45 255713  304 TBB/DEEP BLUE
33497.60Paul Gross   Hatboro, PA0:45:45 268860  310 GUY'S RACING CLUB
34503.47Dean Foster   New York, NY0:45:45 163374  308 QCW CYCLING / BREAKAWAYBIKES.COM
35509.34Michael Csuy   Kennett Square, PA0:45:45 101775  346 PA Masters RC
36515.21Richard Reinhardt (2 - Cat1)   West Chester, PA0:45:45 155331  337 
37521.08Chuck Crabb   Royersford, PA0:45:45 299666  305 LRTC

Men - Masters - 55-59

 Place Points NameCity, StateTime USAC #BibTeam
1326.01Charles Carnila   Feasterville, PA0:48:10 45169  993 Mambo Kings
2337.53Steven Lehman   Rock Hill, SC0:48:10 54723  982 TRI-STATE VELO
3349.05Robert Kehl   Philadelphia, PA0:48:10 45528  338 
4360.57Chip Berezny (1 - Cat3)   Coopersburg, PA0:48:10 45079  978 BIKE LINE / LWA
5372.09Martin Lorenz   Jenkintown, PA0:48:10 164676  983 GUY'S RACING CLUB
6383.61Richard Steele   West Chester, PA0:48:10 237198  990 CHESTER COUNTY VELO - SMEDLEY/IRONHILL
7395.14David Nesler   Newark, DE0:48:10 188442  986 MAIN LINE CYCLING - BIKYLE/MAZUR COACHING
8406.66Peter Breuninger   Paoli, PA0:48:10 187461  979 MAINLINE CYCLING - BIKYLE/MAZUR COACHING
9418.18Jay Hoffman   Fort Washington, PA0:48:10 247980  996 Tri-State Velo
10429.70Philip Stanley   Allentown, PA0:48:10 45967  995 Morgan Stanley Cycling Team
11441.22Bruce Petrovick   Wilmington, DE0:48:10 79508  987 MAIN LINE CYCLING - BIKYLE
12452.74Brian Murphy   Edgewater Park, NJ0:48:10 237827  985 SUMMIT / D&Q
13464.26Royden Detweiler   Quakertown, PA0:48:10 230839  994 Lehigh Wheelmen Assoc
14475.78Gregory Ruch   Lehighton, PA0:48:10 130074  992 Tri State Velo
15487.30Frederick Hofman (1 - Cat2)   Trout Run, PA0:48:10 16453  980 BIKE LINE / LWA
16498.82Darrell Vreugdenhil   Havertown, PA0:48:10 36831  998 Morgan Stanley Cycling Team
17510.34John Capaldo   Chester Springs, PA0:48:10 63993  999 Tri State Velo
18521.86Kevin Tuttle   Jeffersonville, PA0:48:10 115508  991 MAIN LINE CYCLING-BIKYLE/MAZUR COACHING
19533.39Elizabeth Tyrell   Annandale, NJ0:48:10 49047  997 Somerset Wheelmen
20544.91William Mauro   Williamsport, PA0:48:10 128248  984 SUSQUEHANNA VALLEY VELO CLUB

Men - Junior - 10-12

 Place Points NameCity, StateTime USAC #BibTeam
1540.00Magnus Hartwell   Breinigsville, PA0:30:02 306913  62 YOUNG MEDALISTS / TEAM DUAL TEMP
2547.14Alec Ratzell   Blandon, PA0:30:02 310898  66 BIKELINE / LWA
3554.29Andres Weller   Emmaus, PA0:30:02 309214  67 YOUNG MEDALIST
4561.43Svetlana Mack   Silver Spring, MD 272062  65 ARTEMIS
5568.57Tobias Hahn   Philadelphia, PA 310919  61 QCW CYCLING/BREAKAWAYBIKES.COM
6Hugo Schrear   0:30:02  68 Liberty
7582.86Benjamin Hahn   Philadelphia, PA0:30:02 310922  60 QCW CYCLING/BREAKAWAYBIKES.COM
8590.00Lucas Heinzerling   Bethesda, MD0:30:02 309101  63 ARTEMIS

Men - Junior - 13-14

 Place Points NameCity, StateTime USAC #BibTeam
1518.78Austin Bright   Barto, PA0:29:13 283285  631 TEAM VORTEX
2525.34Ian Baun   Pittsburgh, PA0:29:13 295295  630 TEAM CITUS
3531.90Jeremy Boyle   Macungie, PA0:29:13 308090  640 Lehigh Wheelmen Assoc
4538.46Peter Harris   Lititz, PA0:29:13 275261  633 YOUNG MEDALISTS/DUAL TEMP
5545.02Tyler Mower   Pittsburgh, PA0:29:13 299802  636 TEAM CITIUS
6551.58Evelyn Korbich   New Tripoli, PA0:29:13 290571  635 BIKELINE/LWA
7558.14Zach Prebosnyak   Bethlehem, PA0:29:13 299289  637 TEAM VORTEX
8564.70Ian Kleinguenther   Sellersville, PA0:29:13 300523  634 TEAM VORTEX
9571.26Wyatt Saint Clair   Philadelphia, PA0:29:13 269048  638 MAIN LINE CYCLING - BIKYLE/MAZUR COACHING

Men - Junior - 15-16

 Place Points NameCity, StateTime USAC #BibTeam
1387.88Kody McCracken   Wellsboro, PA0:37:57 243300  42 YOUNG MEDALIST/TEAM DUAL TEMP
2398.28Gregory Ratzell   Blandon, PA0:37:57 230201  45 BIKELINE / LWA
3408.67Anthony Skorochod   Wind Gap, PA0:37:57 213999  47 TEAM ALLIANCE ENVIRONMENTAL
4419.06Christopher Meacham   Mooresville, NC0:37:57 297555  43 VORTEX
5429.45Jonathan Bright   Barto, PA0:37:57 249282  35 TEAM VORTEX
6439.85Kaitlyn Lawrence   Emmaus, PA0:37:57 232118  41 TEAM VORTEX
7450.24Zachary Houlik   Breinigsville, PA0:37:57 296256  39 BIKELINE/LWA
8460.63Luke Bateman   Carlisle, PA0:37:57 255154  32 YOUNG MEDALISTS/TEAM DUAL TEMP
9CHRIS BENSON   0:37:57  33 QCW CYCLING/BREAKAWAYBIKES.COM
10481.42Nadia Latzgo   Fogelsville, PA0:37:57 240336  40 BIKELINE/LWA
11SEAN BETTS   0:37:57  34 QCW CYCLING/BREAKAWAYBIKES.COM
12502.20Melissa Garcia   Bethlehem, PA0:37:57 283586  37 TEAM ALLIANCE ENVIRONMENTAL
13512.59Bailey Semian   Mertztown, PA0:37:57 281672  46 TEAM ALLIANCE ENVIRONMENTAL
14FESTUS AIGBOKHAI   0:37:57  31 QCW CYCLING/BREAKAWAYBIKES.COM
15533.38William Pestcoe   Allentown, PA0:37:57 284904  44 TEAM BIKE LINE
16543.77Connor Campbell   Philadelphia, PA0:37:57 311675  48 QCW Breakaway
17JOSH CASE   0:37:57  36 QUAKER CITY WHEELMEN/BREAKAWAYBIKES.COM
18ERIC GOODWIN   0:37:57  38 QCW CYCLING/BREAKAWAYBIKES.COM

Men - Junior - 17-18

 Place Points NameCity, StateTime USAC #BibTeam
1234.62Juan Carmona   Breinigsville, PA0:33:16 251948  962 YOUNG MEDALISTS CYCLING CLUB/TEAM DUAL TEMP
2253.78Zack Noonan   Kutztown, PA0:33:16 249618  969 YOUNG MEDALISTS/TEAM DUAL TEMP
3272.93Robin Carpenter   Philadelphia, PA0:33:16 229481  963 YOUNG MEDALISTS/ TEAM DUAL TEMP
4292.09William (Booey) Hottenstein   Kingston, PA0:33:16 195794  968 TRI-STATE VELO/AMOROSO'S RACING TEAM
5311.24Nicholas Roeder   Kunkletown, PA0:33:16 235891  971 TRI-STATE VELO
6330.40Matthew Waller   Morgantown, PA0:33:16 249208  974 TRI-STATE VELO
7349.56Benjamin Salibra   Fayetteville, NY0:33:16 233370  975 Century Road Club Association
8368.71Jeffrey Alpert   Coopersburg, PA0:33:16 248058  960 YOUNG MEDALISTS/ TEAM DUAL TEMP
9387.87Gunnar Bergey   Banner Elk, NC0:33:16 264871  961 FAST FORWARD JUNIOR DEVELOPMENT TEAM
10407.02David Novak   Tunkhannock, PA0:33:16 268729  970 SICKLER'S RACING/ UPSTATE VELO
11426.18Andrew Harris   Lititz, PA0:33:16 245643  966 YOUNG MEDALISTS/DUAL TEMP
12445.34Matthew Voyer   Blandon, PA0:33:16 247712  973 YOUNG MEDALISTS / TEAM DUAL TEMP
13SAM COWANS   0:33:16  964 QCW CYCLING/BREAKAWAYBIKES.COM
14483.65David Dawson   Springfield, PA0:33:16 250197  965 HUMAN ZOOM/PABST BLUE RIBBON
15LEROY HAYES   0:33:16  967 QCW CYCLING/BREAKAWAYBIKES.COM
16JUSTIN THOMPSON   0:33:16  972 QCW CYCLING/BREAKAWAYBIKES.COM

Women - Cat 1/2/3

 Place Points NameCity, StateTime USAC #BibTeam
1310.91Colleen Hayduk   Kutztown, PA0:50:09 184207  611 VERDUCCI/BREAKAWAY RACING
2319.00Kimberly Geist   Emmaus, PA0:50:09 134992  609 TEAM ALLIANCE ENVIRONMENTAL
3327.10Rebecca Chan   Baltimore, MD0:50:09 239760  603 STURDY GIRL CYCLING
4335.19Lenore Pipes (1 - Cat1)   Ithaca, NY0:50:09 273047  621 FRUIT66/ARTEMIS
5343.29Christine Fennessy (1 - Cat2)   Emmaus, PA0:50:09 248898  608 SOUTH MOUNTAIN CYCLES
6351.38Tricia Carnila (2 - Cat1)   Philadelphia, PA0:50:09 71130  630 
7359.48Dana Walton   E Norriton, PA0:50:09 70202  628 TEAM ALLIANCE ENVIRONMENTAL
8367.57Mary Costelloe   Emmaus, PA0:50:09 192297  605 VERDUCCI
9375.66Kaitlyn Lawrence   Emmaus, PA0:50:09 232118  616 TEAM VORTEX
10383.76Lynda Maldonado (2 - Cat2)   Little Rock, AR0:50:09 115696  618 CANNONDALE/CADENCE WOMEN'S RACING
11391.85Elspeth Huyett (1 - Cat3)   Alburtis, PA0:50:09 229080  613 VERDUCCI/ BREAKAWAY RACING
12399.95Antonina Esposto   Blandon, PA0:50:09 251573  607 TEAM ALLIANCE ENVIRONMENTAL
13408.04Michelle Bishop   Bala Cynwyd, PA0:50:09 283001  601 CADENCE CANNONDALE
14416.14Lisa Jellett   Warren, NJ0:50:09 185381  631 
15424.23Patricia Marzi   Kutztown, PA0:50:09 191454  619 SALAMANDER
16432.32Emily MacKay   Philadelphia, PA0:50:09 260854  617 AMOROSO'S CYCLING TEAM/TRI-STATE VELO
17440.42Patricia Buerkle   Philadelphia, PA0:50:09 131990  602 FRUIT 66 - ARTEMIS
18448.51Michelle Scharf (3 - Cat2)   Sacramento, CA0:50:09 258446  629 
19456.61Dana Cuomo   State College, PA0:50:09 256734  606 THRU-IT-ALL BODY SHOP INC
20464.70Kelley Bethoney   Wynnewood, PA0:50:09 242335  600 CANNONDALE/CADENCE WOMEN'S CYCLING TEAM
21472.80Jennifer Kulicki   Manheim, PA0:50:09 258712  614 THRU-IT-ALL BODY SHOP INC.
22480.89Rachael Hunter   Media, PA0:50:09 272600  612 CANNONDALE/CADENCE WOMENS RACING
23488.98Jessica Chong   Allentown, PA0:50:09 303840  604 MORGAN STANLEY SMITH BARNEY MARKET EDGE
24497.08Jody Twer   Hatboro, PA0:50:09 209826  625 STURDY GIRL CYCLING
25505.17Sally Poliwoda   Philadelphia, PA0:50:09 203514  622 STURDY GIRL CYCLING
26513.27Elizabeth Tyrell   Annandale, NJ0:50:09 49047  626 TEAM SOMERSET
27521.36Jacqueline Paull   Hackettstown, NJ0:50:09 27456  620 WATCHUNG WHEELMEN/HIGH GEAR CYCLERY
28529.46Nadia Latzgo   Fogelsville, PA0:50:09 240336  615 BIKELINE/LWA
29537.55Margaret Smigiel   Flourtown, PA0:50:09 195721  624 CANNONDALE/CADENCE WOMEN'S RACING
30545.64Jennifer Rhodes   Glenside, PA0:50:09 164760  623 STURDY GIRL CYCLING

Women - Cat 4

 Place Points NameCity, StateTime USAC #BibTeam
1457.78kristine wander   Philadelphia, PA0:37:27 300978  677 QCW CYCLING/BREAKAWAYBIKES.COM
2463.07Beth Renner   New York, NY0:37:27 299267  666 TEAM EPS/CSS P/B BRIELLE CYCLERY
3468.36Caitlin Spillane   Glenmoore, PA0:37:27 183245  673 TRI STATE VELO
4473.65Melanie Glenn   Philadelphia, PA0:37:27 309056  658 QCW CYCLING/BREAKAWAYBIKES.COM
5478.94Lisa Bowerman   West Hollywood, CA0:37:27 307003  651 STURDY GIRL CYCLING
6484.23Catherine Probst   University Park, PA0:37:27 257694  665 TEAM EPS/CSS P/B BRIELLE CYCLERY
7489.52Lauren Festa   Devon, PA0:37:27 313510  656 EASY RIDERS
8494.80Bailey Semian   Mertztown, PA0:37:27 281672  671 TEAM ALLIANCE ENVIRONMENTAL
9500.09Judi Rivera   Philadelphia, PA0:37:27 276683  668 STURDY GIRL CYCLING
10505.38Victoria Hanks   Pennsauken, NJ0:37:27 290990  660 DREXEL UNIVERSITY
11510.67Pamela Schmaldinst   Allentown, PA0:37:27 265041  670 JVR SPORTS
12515.96Barbara Statton   Lumberton, NJ0:37:27 289162  674 STURDY GIRL CYCLING
13521.25Annie Risemberg   Philadelphia, PA0:37:27 298272  667 QCW CYCLING/BREAKAWAYBIKES.COM
14526.54Catherine vonReyn   Philadelphia, PA0:37:27 293973  675 BREAKAWAY.COM/ QCW
15531.82Jennifer Bollinger   Trexlertown, PA0:37:27 300823  650 TEAM ALLIANCE ENVIRONMENTAL
16537.11Susan Seyboldt   Roebling, NJ0:37:27 275341  672 TEAM EPS/CSS P/B BRIELLE CYCLERY
17542.40Jocelyn Ruiz   Allentown, PA0:37:27 282075  669 STURDY GIRL CYCLING
18547.69Beth Fayant   Bridgeport, PA0:37:27 272394  655 STURDY GIRL CYCLING
19552.98Julie Wright   Newton Upper Falls, MA0:37:27 289289  678 STURDY GIRL CYCLING
20558.27Mary LaSota   Westchester, PA0:37:27 291388  663 CHESTER COUNTY VELO - SMEDLEY/IRON HILL
21563.56Aliza Karetnick   Brynmawr, PA0:37:27 303701  662 QCW/BREAKAWAYBIKES.COM
22568.85Amelia McCracken   Philadelphia, PA0:37:27 304189  664 QCW CYCLING/BREAKAWAYBIKES.COM
23574.13Melissa Garcia   Bethlehem, PA0:37:27 283586  657 TEAM ALLIANCE ENVIRONMENTAL
24579.42Doreen Crowle   Norristown, PA0:37:27 210818  652 STURDY GIRL CYCLING
25584.71Sarah Grogan   Philadelphia, PA0:37:27 291416  659 
26590.00Heidi Marie Reppert   Bethlehem, PA0:37:27 165142  679 Vortex Cycling Club

Report missing or incorrect license numbers

Volkswagen
ShimanoSpySierra NevadaUSACDFBonk Breaker
UCI USA Cycling is the official governing body for all disciplines of competitive cycling in the United States. The 501c3, membership-based organization aims both to achieve sustained success in international cycling competition and to grow competitive cycling in America while delivering an exceptional customer experience.
View Children's Online Privacy Protection Policy
US Olympic Committee